WetterOnline ( https://www.wetteronline.de )

Wetter aktuell Kempten

Aktuelles Wetter: Leutkirch-Herlazhofen (671m)

6-stündlich | Neueste Meldungen
Ortszeit Temperatur Wetter
Fr, 09.12. 13:00 1.2° C bewölkt
Fr, 09.12. 7:00 -0.6° C bewölkt
Fr, 09.12. 1:00 -1.1° C bewölkt
Do, 08.12. 19:00 -1.0° C bewölkt
Do, 08.12. 13:00 1.2° C bedeckt
Do, 08.12. 7:00 -0.8° C bedeckt
Do, 08.12. 1:00 -0.6° C bedeckt
Mi, 07.12. 19:00 -0.1° C bedeckt
Ortszeit Temperatur Wetter
Fr, 09.12. 17:30 -0.5° C Schneefall
Fr, 09.12. 17:20 -0.5° C Schneefall
Fr, 09.12. 17:10 -0.4° C leichter Schneefall
Fr, 09.12. 17:00 -0.2° C leichter Schneefall
Fr, 09.12. 16:50 -0.2° C leichter Schneefall
Fr, 09.12. 16:40 -0.2° C leichter Schneefall
Fr, 09.12. 16:30 -0.1° C leichter Schneefall
Fr, 09.12. 16:00 0.0° C leichter Schneefall
Fr, 09.12. 15:30 0.1° C leichter Schneefall
Fr, 09.12. 15:00 0.3° C leichter Schneefall
Fr, 09.12. 14:30 0.8° C leichter Schneefall
Ortszeit Relative Feuchte Sichtweite
Fr, 09.12. 13:00 80% 30 km
Fr, 09.12. 7:00 85% 20 km
Fr, 09.12. 1:00 92% 8 km
Do, 08.12. 19:00 92% 9 km
Do, 08.12. 13:00 83% 24 km
Do, 08.12. 7:00 98% 3.0 km
Do, 08.12. 1:00 99% 4.4 km
Mi, 07.12. 19:00 97% 8 km
Ortszeit Relative Feuchte Sichtweite
Fr, 09.12. 17:30 96% 1.9 km
Fr, 09.12. 17:20 96% -
Fr, 09.12. 17:10 96% -
Fr, 09.12. 17:00 95% 5.0 km
Fr, 09.12. 16:50 95% -
Fr, 09.12. 16:40 96% -
Fr, 09.12. 16:30 96% 4.7 km
Fr, 09.12. 16:00 94% 4.7 km
Fr, 09.12. 15:30 94% 6 km
Fr, 09.12. 15:00 94% 2.9 km
Fr, 09.12. 14:30 92% 5.0 km
Ortszeit Niederschlagsmenge Niederschlagsart
Fr, 09.12. 13:00 0.1 l/m2 in 6 Std. Schnee, Sprühregen
Fr, 09.12. 7:00 0.1 l/m2 in 12 Std. -
Fr, 09.12. 1:00 0.1 l/m2 in 6 Std. Schnee
Do, 08.12. 19:00 0.0 l/m2 in 12 Std. -
Do, 08.12. 13:00 0.0 l/m2 in 6 Std. -
Do, 08.12. 7:00 0.0 l/m2 in 12 Std. -
Do, 08.12. 1:00 0.0 l/m2 in 6 Std. -
Mi, 07.12. 19:00 0.1 l/m2 in 12 Std. -
Ortszeit Niederschlagsmenge Niederschlagsart
Fr, 09.12. 17:30 0.4 l/m2 in 1 Std. -
Fr, 09.12. 17:20 keine Meldung -
Fr, 09.12. 17:10 keine Meldung -
Fr, 09.12. 17:00 0.1 l/m2 in 1 Std. Schnee
Fr, 09.12. 16:50 keine Meldung -
Fr, 09.12. 16:40 keine Meldung -
Fr, 09.12. 16:30 <0.05 l/m2 in 1 Std. -
Fr, 09.12. 16:00 0.1 l/m2 in 1 Std. Schnee
Fr, 09.12. 15:30 <0.05 l/m2 in 1 Std. -
Fr, 09.12. 15:00 0.1 l/m2 in 1 Std. Schnee
Fr, 09.12. 14:30 <0.05 l/m2 in 1 Std. -
Ortszeit Stärke Spitze Richtung
km/h Bft. km/h Grad Sektor
Fr, 09.12. 13:00 9 2 19 40° NO
Fr, 09.12. 7:00 7 2 17 20° N
Fr, 09.12. 1:00 7 2 11 40° NO
Do, 08.12. 19:00 4 1 11 80° O
Do, 08.12. 13:00 7 2 14 250° W
Do, 08.12. 7:00 0 0 7 - -
Do, 08.12. 1:00 4 1 7 330° NW
Mi, 07.12. 19:00 4 1 11 150° SO
Ortszeit Stärke Spitze Richtung
km/h Bft. km/h Grad Sektor
Fr, 09.12. 17:30 4 1 11 350° N
Fr, 09.12. 17:20 4 1 - 350° N
Fr, 09.12. 17:10 6 1 - 350° N
Fr, 09.12. 17:00 4 1 14 360° N
Fr, 09.12. 16:50 4 1 - 360° N
Fr, 09.12. 16:40 4 1 - 10° N
Fr, 09.12. 16:30 6 1 13 10° N
Fr, 09.12. 16:00 6 1 11 30° NO
Fr, 09.12. 15:30 6 1 9 30° NO
Fr, 09.12. 15:00 7 2 14 20° N
Fr, 09.12. 14:30 7 2 15 30° NO
Ortszeit Untergrenze Bedeckung Gattung
total tief tief mittel hoch
Fr, 09.12. 13:00 1080 m 7/8 7/8 - - -
Fr, 09.12. 7:00 750 m 7/8 7/8 - - -
Fr, 09.12. 1:00 2100 m 7/8 7/8 - - -
Do, 08.12. 19:00 600 m 7/8 7/8 - - -
Do, 08.12. 13:00 390 m 8/8 8/8 - - -
Do, 08.12. 7:00 1050 m 8/8 8/8 - - -
Do, 08.12. 1:00 1200 m 8/8 8/8 - - -
Mi, 07.12. 19:00 1380 m 8/8 8/8 - - -
Ortszeit Bedeckungsgrad in Achtel und Wolkenuntergrenze
Fr, 09.12. 17:30 7(150m)
Fr, 09.12. 17:20 7(150m)
Fr, 09.12. 17:10 7
Fr, 09.12. 17:00 7(120m)
Fr, 09.12. 16:50 7(120m)
Fr, 09.12. 16:40 8
Fr, 09.12. 16:30 7(150m)
Fr, 09.12. 16:00 8(120m)
Fr, 09.12. 15:30 7(150m)
Fr, 09.12. 15:00 5(150m)
Fr, 09.12. 14:30 1(1140m)
Ortszeit Luftdruck NN (hPa) Tendenz (hPa in 3 Std.)
Fr, 09.12. 13:00 1002 - 1,5
Fr, 09.12. 7:00 1004 - 2,0
Fr, 09.12. 1:00 1008 - 1,4
Do, 08.12. 19:00 1010 - 0,4
Do, 08.12. 13:00 1011 - 1,5
Do, 08.12. 7:00 1013 - 1,1
Do, 08.12. 1:00 1015 - 1,1
Mi, 07.12. 19:00 1017 - 0,5
Ortszeit Luftdruck NN (hPa) Tendenz (hPa in 3 Std.)
Fr, 09.12. 17:30 1003 + 1,3
Fr, 09.12. 17:20 1003 keine Meldung
Fr, 09.12. 17:10 1004 keine Meldung
Fr, 09.12. 17:00 1003 + 1,3
Fr, 09.12. 16:50 1003 keine Meldung
Fr, 09.12. 16:40 1003 keine Meldung
Fr, 09.12. 16:30 1003 + 1,1
Fr, 09.12. 16:00 1002 + 0,5
Fr, 09.12. 15:30 1002 + 0,1
Fr, 09.12. 15:00 1002 - 0,4
Fr, 09.12. 14:30 1002 - 0,9
Ortszeit Schneehöhe (cm)
Fr, 09.12. 13:00 0
Fr, 09.12. 7:00 0
Fr, 09.12. 1:00 0
Do, 08.12. 19:00 0
Do, 08.12. 13:00 0
Do, 08.12. 7:00 0
Do, 08.12. 1:00 0
Mi, 07.12. 19:00 0
Ortszeit Schneehöhe (cm)
Fr, 09.12. 17:30 0
Fr, 09.12. 17:20 0
Fr, 09.12. 17:10 0
Fr, 09.12. 17:00 0
Fr, 09.12. 16:50 0
Fr, 09.12. 16:40 0
Fr, 09.12. 16:30 0
Fr, 09.12. 16:00 0
Fr, 09.12. 15:30 0
Fr, 09.12. 15:00 0
Fr, 09.12. 14:30 0
Link zu dieser Seite / Seite empfehlen

Das Wetter in ...